This is the latest recevied weather packets stored in our database for station/object SR6WXJG. If no packets are shown the sender has not sent any weather packets the latest 10 day(s).
| Time | Temp. | Humidity | Pressure | Rain* | Wind** | Luminosity | Snow |
|---|---|---|---|---|---|---|---|
| 1777964737 | 16.67° C | 72% | 1009 hPa | 0 mm | - | - | - |
| 1777963837 | 16.67° C | 72% | 1009 hPa | 0 mm | - | - | - |
| 1777962936 | 16.67° C | 72% | 1009 hPa | 0 mm | - | - | - |
| 1777962036 | 16.11° C | 71% | 1009 hPa | 0 mm | - | - | - |
| 1777961135 | 15° C | 77% | 1009 hPa | 0 mm | - | - | - |
| 1777960235 | 15° C | 77% | 1009 hPa | 0 mm | - | - | - |
| 1777959335 | 15° C | 77% | 1009 hPa | 0 mm | - | - | - |
| 1777958434 | 13.89° C | 76% | 1009 hPa | 0 mm | - | - | - |
| 1777957534 | 13.33° C | 77% | 1009 hPa | 0 mm | - | - | - |
| 1777956634 | 13.33° C | 82% | 1009 hPa | 0 mm | - | - | - |
| 1777955733 | 12.78° C | 82% | 1009 hPa | 0 mm | - | - | - |
| 1777954833 | 12.78° C | 80% | 1009 hPa | 0 mm | - | - | - |
| 1777953932 | 12.78° C | 80% | 1009 hPa | 0 mm | - | - | - |
| 1777953032 | 12.22° C | 83% | 1009 hPa | 0 mm | - | - | - |
| 1777952132 | 12.78° C | 83% | 1009 hPa | 0 mm | - | - | - |
| 1777951231 | 12.78° C | 79% | 1010 hPa | 0 mm | - | - | - |
| 1777950331 | 12.78° C | 79% | 1010 hPa | 0 mm | - | - | - |
| 1777949431 | 12.78° C | 83% | 1010 hPa | 0 mm | - | - | - |
| 1777948530 | 12.78° C | 83% | 1010 hPa | 0 mm | - | - | - |
| 1777947630 | 13.33° C | 79% | 1010 hPa | 0 mm | - | - | - |
| 1777946729 | 13.33° C | 78% | 1010 hPa | 0 mm | - | - | - |
| 1777945829 | 13.33° C | 83% | 1010 hPa | 0 mm | - | - | - |
| 1777944929 | 13.33° C | 83% | 1010 hPa | 0 mm | - | - | - |
| 1777944028 | 13.89° C | 77% | 1010 hPa | 0 mm | - | - | - |
| 1777943128 | 13.89° C | 79% | 1010 hPa | 0 mm | - | - | - |
* Rain latest hour (hover to see other rain measurements)
** Current wind speed in m/s (hover to see current wind gust speed)